Location: Peterborough
(44.3091°N, 78.3197°W)
Time: 05:03:31
(UTC-04:00)

Tiros 1 despin weight - Pass Details

Date: 23 March 2023
Orbit: 586 x 632 km, 48.2° (Epoch: 08 June)

Event Time Altitude Azimuth Distance (km) Brightness Sun altitude
Rises 02:14:08 0° 283° (WNW) 2,832 - -43.2°
Reaches altitude 10° 02:16:28 10° 289° (WNW) 1,937 - -43.0°
Maximum altitude 02:20:49 53° 7° (N) 747 - -42.8°
Drops below altitude 10° 02:25:14 10° 84° (E) 1,966 - -42.5°
Sets 02:27:36 0° 89° (E) 2,879 - -42.3°
